AEA026 SLVR-LEMD

Flight info

Callsign AEA026
Flight time N/A
Altitude 40000
Route VIR UL540 VALAS UZ91 LUIZA DCT BEL UZ54 SAPGO DCT 13N040W DCT TUTLO/M084F400 DCT 20N035W 24N030W DCT INSAD/N0485F400 DCT OSLEV/M083F400 DCT 31N020W DCT ABALO/N0474F400 DCT SNT DCT RULET DCT GALPA DCT NARTA DCT MINTA DCT OSLEP DCT OXACA DCT PARKA DCT SOTUK
Aircraft B788/H-SDE1E2E3FGHIJ2J3J4J5M1RWXY/LB1D1

Departure

Time 2026-04-24 11:59
Airport Viru Viru International Airport (SLVR)

Arrival

Time N/A
Airport Adolfo Suárez Madrid–Barajas Airport (LEMD)
Time Latitude Longitude Altitude Speed Heading
2026-04-24 11:21 -17.64757 -63.13965 1251 ft 0 kts 237°
2026-04-24 11:47 -17.64756 -63.13961 1253 ft 3 kts 237°
2026-04-24 11:47 -17.64747 -63.13948 1254 ft 2 kts 253°
2026-04-24 11:47 -17.64743 -63.13924 1253 ft 4 kts 268°
2026-04-24 11:48 -17.64746 -63.13897 1253 ft 4 kts 280°
2026-04-24 11:48 -17.64747 -63.13890 1253 ft 0 kts 280°
2026-04-24 11:50 -17.64744 -63.13896 1253 ft 3 kts 305°
2026-04-24 11:50 -17.64699 -63.13922 1249 ft 9 kts 335°
2026-04-24 11:51 -17.64644 -63.13953 1251 ft 9 kts 327°
2026-04-24 11:51 -17.64587 -63.13992 1251 ft 10 kts 327°
2026-04-24 11:51 -17.64518 -63.14018 1251 ft 10 kts 16°
2026-04-24 11:51 -17.64470 -63.13972 1253 ft 9 kts 57°
2026-04-24 11:52 -17.64432 -63.13907 1253 ft 11 kts 58°
2026-04-24 11:52 -17.64382 -63.13859 1244 ft 9 kts
2026-04-24 11:52 -17.64328 -63.13876 1246 ft 9 kts 334°
2026-04-24 11:52 -17.64256 -63.13919 1250 ft 13 kts 328°
2026-04-24 11:53 -17.64183 -63.13969 1246 ft 12 kts 326°
2026-04-24 11:53 -17.64101 -63.14024 1250 ft 14 kts 327°
2026-04-24 11:53 -17.64015 -63.14079 1251 ft 14 kts 339°
2026-04-24 11:53 -17.63942 -63.14046 1252 ft 12 kts 50°
2026-04-24 11:54 -17.63886 -63.13980 1246 ft 13 kts 25°
2026-04-24 11:54 -17.63782 -63.14005 1234 ft 20 kts 324°
2026-04-24 11:54 -17.63671 -63.14079 1248 ft 18 kts 329°
2026-04-24 11:54 -17.63557 -63.14155 1244 ft 20 kts 327°
2026-04-24 11:55 -17.63437 -63.14238 1251 ft 21 kts 326°
2026-04-24 11:55 -17.63318 -63.14320 1251 ft 20 kts 327°
2026-04-24 11:55 -17.63225 -63.14390 1243 ft 10 kts 301°
2026-04-24 11:55 -17.63203 -63.14436 1247 ft 4 kts 337°
2026-04-24 11:56 -17.63179 -63.14427 1245 ft 2 kts 64°
2026-04-24 11:56 -17.63182 -63.14414 1249 ft 2 kts 131°
2026-04-24 11:56 -17.63207 -63.14390 1251 ft 6 kts 137°
2026-04-24 11:56 -17.63218 -63.14382 1248 ft 2 kts 147°
2026-04-24 11:57 -17.63228 -63.14375 1248 ft 0 kts 148°
2026-04-24 11:58 -17.63229 -63.14374 1248 ft 2 kts 148°
2026-04-24 11:58 -17.63231 -63.14373 1248 ft 5 kts 148°
2026-04-24 11:59 -17.63456 -63.14219 1249 ft 74 kts 147°
2026-04-24 11:59 -17.64081 -63.13803 1249 ft 140 kts 148°
2026-04-24 11:59 -17.65027 -63.13177 1611 ft 167 kts 152°
2026-04-24 11:59 -17.65978 -63.12501 2441 ft 166 kts 146°
2026-04-24 12:00 -17.66864 -63.11718 3162 ft 168 kts 127°
2026-04-24 12:00 -17.67519 -63.10650 3757 ft 183 kts 119°
2026-04-24 12:00 -17.68204 -63.09464 4360 ft 196 kts 118°
2026-04-24 12:00 -17.68893 -63.08188 5032 ft 204 kts 115°
2026-04-24 12:01 -17.69553 -63.06825 5634 ft 217 kts 114°
2026-04-24 12:01 -17.70277 -63.05336 6110 ft 241 kts 117°
2026-04-24 12:01 -17.71206 -63.03813 6700 ft 257 kts 121°
2026-04-24 12:01 -17.72119 -63.02087 7052 ft 283 kts 115°
2026-04-24 12:02 -17.73085 -63.00267 7866 ft 287 kts 118°
2026-04-24 12:02 -17.74148 -62.98463 8723 ft 293 kts 120°
2026-04-24 12:02 -17.75235 -62.96632 9596 ft 297 kts 119°
2026-04-24 12:02 -17.76314 -62.94756 10312 ft 308 kts 119°
2026-04-24 12:03 -17.77455 -62.92755 10517 ft 335 kts 119°
2026-04-24 12:03 -17.78712 -62.90575 10819 ft 355 kts 120°
2026-04-24 12:03 -17.79997 -62.88362 11113 ft 359 kts 120°
2026-04-24 12:03 -17.81289 -62.86122 11957 ft 359 kts 120°
2026-04-24 12:04 -17.82586 -62.83867 12743 ft 364 kts 120°
2026-04-24 12:04 -17.83907 -62.81572 13540 ft 369 kts 120°
2026-04-24 12:04 -17.85240 -62.79259 14281 ft 373 kts 120°
2026-04-24 12:04 -17.86592 -62.76913 15005 ft 377 kts 120°
2026-04-24 12:05 -17.87954 -62.74544 15757 ft 380 kts 120°
2026-04-24 12:05 -17.89327 -62.72157 16475 ft 384 kts 121°
2026-04-24 12:05 -17.90711 -62.69750 17193 ft 387 kts 121°
2026-04-24 12:05 -17.92109 -62.67318 17901 ft 391 kts 121°
2026-04-24 12:06 -17.93473 -62.64842 18540 ft 394 kts 114°
2026-04-24 12:06 -17.94221 -62.62080 19182 ft 395 kts 95°
2026-04-24 12:06 -17.94240 -62.59196 19759 ft 397 kts 87°
2026-04-24 12:06 -17.93957 -62.56313 20408 ft 397 kts 75°
2026-04-24 12:07 -17.92925 -62.53643 21021 ft 398 kts 58°
2026-04-24 12:07 -17.91170 -62.51391 21571 ft 401 kts 41°
2026-04-24 12:07 -17.88845 -62.49763 22112 ft 405 kts 25°
2026-04-24 12:07 -17.86143 -62.48884 22637 ft 411 kts
2026-04-24 12:08 -17.83276 -62.48822 23177 ft 416 kts 353°
2026-04-24 12:08 -17.80452 -62.49590 23661 ft 424 kts 338°
2026-04-24 12:08 -17.77888 -62.51134 24063 ft 430 kts 323°
2026-04-24 12:08 -17.75757 -62.53352 24498 ft 436 kts 308°
2026-04-24 12:09 -17.74204 -62.56104 24920 ft 441 kts 293°
2026-04-24 12:09 -17.73332 -62.59193 25325 ft 446 kts 281°
2026-04-24 12:09 -17.72973 -62.62438 25728 ft 450 kts 275°
2026-04-24 12:09 -17.72765 -62.65725 26155 ft 451 kts 275°
2026-04-24 12:10 -17.72471 -62.69005 26577 ft 452 kts 280°
2026-04-24 12:10 -17.71860 -62.72231 26986 ft 453 kts 285°
2026-04-24 12:10 -17.71038 -62.75433 27399 ft 455 kts 287°
2026-04-24 12:11 -17.69562 -62.81925 28178 ft 460 kts 282°
2026-04-24 12:11 -17.68766 -62.85165 28563 ft 459 kts 294°
2026-04-24 12:11 -17.67325 -62.88143 28937 ft 459 kts 306°
2026-04-24 12:11 -17.65296 -62.90707 29303 ft 458 kts 319°
2026-04-24 12:12 -17.62794 -62.92770 29630 ft 458 kts 330°
2026-04-24 12:12 -17.59953 -62.94272 29980 ft 459 kts 341°
2026-04-24 12:12 -17.56872 -62.95144 30285 ft 459 kts 353°
2026-04-24 12:12 -17.53680 -62.95340 30568 ft 460 kts
2026-04-24 12:13 -17.50525 -62.94850 30856 ft 461 kts 16°
2026-04-24 12:13 -17.47505 -62.93681 31117 ft 463 kts 27°
2026-04-24 12:13 -17.44781 -62.91884 31384 ft 465 kts 39°
2026-04-24 12:13 -17.42450 -62.89520 31625 ft 469 kts 49°
2026-04-24 12:14 -17.40338 -62.86912 31847 ft 471 kts 49°
2026-04-24 12:14 -17.38228 -62.84272 32104 ft 473 kts 49°
2026-04-24 12:14 -17.36118 -62.81618 32346 ft 475 kts 49°
2026-04-24 12:14 -17.33991 -62.78961 32600 ft 477 kts 49°
2026-04-24 12:15 -17.31852 -62.76305 32821 ft 479 kts 49°
2026-04-24 12:15 -17.29707 -62.73633 33052 ft 480 kts 49°
2026-04-24 12:15 -17.27561 -62.70951 33282 ft 482 kts 49°
2026-04-24 12:15 -17.25397 -62.68251 33503 ft 484 kts 49°
2026-04-24 12:16 -17.23232 -62.65558 33750 ft 485 kts 49°
2026-04-24 12:16 -17.21061 -62.62857 34039 ft 485 kts 49°
2026-04-24 12:16 -17.18896 -62.60161 34331 ft 484 kts 49°
2026-04-24 12:16 -17.16734 -62.57470 34644 ft 482 kts 49°
2026-04-24 12:17 -17.14574 -62.54784 34936 ft 481 kts 49°
2026-04-24 12:17 -17.12430 -62.52119 35233 ft 480 kts 49°
2026-04-24 12:17 -17.10285 -62.49454 35531 ft 478 kts 49°
2026-04-24 12:17 -17.08144 -62.46794 35832 ft 477 kts 49°
2026-04-24 12:18 -17.06016 -62.44152 36127 ft 475 kts 49°
2026-04-24 12:18 -17.03886 -62.41509 36411 ft 474 kts 49°
2026-04-24 12:18 -17.01792 -62.38911 36686 ft 473 kts 49°
2026-04-24 12:18 -16.99677 -62.36287 36985 ft 472 kts 49°
2026-04-24 12:19 -16.97541 -62.33640 37270 ft 470 kts 49°
2026-04-24 12:19 -16.95436 -62.31031 37535 ft 469 kts 49°
2026-04-24 12:19 -16.93337 -62.28431 37806 ft 468 kts 49°
2026-04-24 12:19 -16.91263 -62.25863 38081 ft 467 kts 49°
2026-04-24 12:20 -16.89174 -62.23277 38336 ft 466 kts 49°
2026-04-24 12:20 -16.87060 -62.20661 38567 ft 465 kts 49°
2026-04-24 12:20 -16.84973 -62.18079 38820 ft 464 kts 49°
2026-04-24 12:20 -16.82891 -62.15505 39010 ft 464 kts 49°
2026-04-24 12:21 -16.80812 -62.12935 39188 ft 464 kts 49°
2026-04-24 12:21 -16.78733 -62.10368 39361 ft 463 kts 49°
2026-04-24 12:21 -16.76652 -62.07797 39539 ft 463 kts 49°
2026-04-24 12:21 -16.74608 -62.05261 39724 ft 463 kts 49°
2026-04-24 12:22 -16.72546 -62.02677 39869 ft 463 kts 50°
2026-04-24 12:22 -16.70459 -62.00065 40021 ft 464 kts 49°
2026-04-24 12:22 -16.68405 -61.97512 40055 ft 467 kts 49°
2026-04-24 12:23 -16.64206 -61.92288 40052 ft 465 kts 50°
2026-04-24 12:23 -16.60096 -61.87170 40053 ft 462 kts 50°
2026-04-24 12:24 -16.55951 -61.82019 40055 ft 460 kts 50°
2026-04-24 12:24 -16.51870 -61.76930 40052 ft 461 kts 50°
2026-04-24 12:25 -16.47756 -61.71742 40055 ft 461 kts 50°
2026-04-24 12:25 -16.43659 -61.66616 40053 ft 461 kts 50°
2026-04-24 12:26 -16.39560 -61.61471 40054 ft 461 kts 50°
2026-04-24 12:26 -16.35464 -61.56344 40052 ft 460 kts 50°
2026-04-24 12:27 -16.32062 -61.52084 40057 ft 460 kts 50°
2026-04-24 12:27 -16.27308 -61.46137 40061 ft 459 kts 50°
2026-04-24 12:28 -16.23214 -61.41021 40051 ft 460 kts 50°
2026-04-24 12:28 -16.19792 -61.36745 40049 ft 459 kts 50°
2026-04-24 12:29 -16.15707 -61.31647 40053 ft 459 kts 50°
2026-04-24 12:29 -16.11618 -61.26546 40048 ft 459 kts 50°
2026-04-24 12:30 -16.07524 -61.21443 40048 ft 459 kts 50°
2026-04-24 12:30 -16.03434 -61.16347 40052 ft 459 kts 50°
2026-04-24 12:31 -15.99342 -61.11255 40045 ft 458 kts 50°
2026-04-24 12:31 -15.95261 -61.06178 40049 ft 458 kts 50°
2026-04-24 12:32 -15.91174 -61.01098 40045 ft 458 kts 50°
2026-04-24 12:32 -15.87079 -60.96012 40046 ft 458 kts 50°
2026-04-24 12:33 -15.83000 -60.90948 40039 ft 458 kts 50°
2026-04-24 12:33 -15.78910 -60.85875 40038 ft 458 kts 50°
2026-04-24 12:34 -15.74829 -60.80816 40038 ft 457 kts 50°
2026-04-24 12:34 -15.70735 -60.75746 40035 ft 458 kts 50°
2026-04-24 12:35 -15.66650 -60.70688 40039 ft 458 kts 50°
2026-04-24 12:35 -15.62559 -60.65627 40038 ft 457 kts 50°
2026-04-24 12:36 -15.58469 -60.60572 40037 ft 457 kts 50°
2026-04-24 12:36 -15.54388 -60.55530 40039 ft 457 kts 50°
2026-04-24 12:37 -15.50300 -60.50484 40039 ft 456 kts 50°
2026-04-24 12:37 -15.46222 -60.45447 40039 ft 456 kts 51°
2026-04-24 12:38 -15.42167 -60.40375 40038 ft 457 kts 51°
2026-04-24 12:38 -15.38101 -60.35323 40038 ft 457 kts 51°
2026-04-24 12:39 -15.29965 -60.25194 40043 ft 457 kts 51°
2026-04-24 12:40 -15.25851 -60.20169 40045 ft 458 kts 50°
2026-04-24 12:40 -15.21720 -60.15145 40048 ft 458 kts 51°
2026-04-24 12:41 -15.17589 -60.10105 40043 ft 459 kts 50°
2026-04-24 12:41 -15.13451 -60.05075 40047 ft 459 kts 50°
2026-04-24 12:42 -15.09316 -60.00041 40045 ft 459 kts 50°
2026-04-24 12:42 -15.05179 -59.95015 40043 ft 458 kts 50°
2026-04-24 12:43 -15.01050 -59.89997 40041 ft 458 kts 50°
2026-04-24 12:43 -14.96917 -59.84982 40040 ft 458 kts 50°
2026-04-24 12:44 -14.92786 -59.79969 40047 ft 458 kts 51°
2026-04-24 12:44 -14.88644 -59.74947 40053 ft 459 kts 51°
2026-04-24 12:45 -14.84501 -59.69927 40047 ft 460 kts 50°
2026-04-24 12:45 -14.80342 -59.64892 40049 ft 460 kts 51°
2026-04-24 12:46 -14.76188 -59.59865 40049 ft 459 kts 51°
2026-04-24 12:46 -14.72039 -59.54848 40052 ft 459 kts 51°
2026-04-24 12:47 -14.67889 -59.49833 40052 ft 460 kts 51°
2026-04-24 12:47 -14.63728 -59.44808 40057 ft 460 kts 51°
2026-04-24 12:48 -14.59569 -59.39789 40058 ft 459 kts 51°
2026-04-24 12:48 -14.55418 -59.34782 40058 ft 459 kts 51°
2026-04-24 12:49 -14.51261 -59.29771 40061 ft 459 kts 51°
2026-04-24 12:49 -14.47106 -59.24765 40065 ft 459 kts 51°
2026-04-24 12:50 -14.42948 -59.19760 40071 ft 459 kts 51°
2026-04-24 12:50 -14.38793 -59.14761 40075 ft 458 kts 51°
2026-04-24 12:51 -14.34641 -59.09769 40073 ft 459 kts 51°
2026-04-24 12:51 -14.30480 -59.04768 40077 ft 460 kts 51°
2026-04-24 12:52 -14.26316 -58.99779 40073 ft 460 kts 50°
2026-04-24 12:52 -14.22138 -58.94782 40076 ft 460 kts 51°
2026-04-24 12:53 -14.17971 -58.89760 40079 ft 460 kts 51°
2026-04-24 12:53 -14.13797 -58.84757 40079 ft 460 kts 51°
2026-04-24 12:54 -14.09630 -58.79766 40073 ft 459 kts 51°
2026-04-24 12:54 -14.05467 -58.74784 40068 ft 459 kts 51°
2026-04-24 12:55 -14.01306 -58.69805 40067 ft 459 kts 51°
2026-04-24 12:55 -13.97129 -58.64812 40070 ft 461 kts 51°
2026-04-24 12:56 -13.92944 -58.59813 40066 ft 461 kts 51°
2026-04-24 12:56 -13.88766 -58.54825 40068 ft 460 kts 51°
2026-04-24 12:57 -13.84587 -58.49840 40072 ft 460 kts 51°
2026-04-24 12:57 -13.80403 -58.44851 40062 ft 460 kts 51°
2026-04-24 12:58 -13.76254 -58.39906 40064 ft 460 kts 51°
2026-04-24 12:58 -13.72070 -58.34924 40066 ft 461 kts 51°
2026-04-24 12:59 -13.67874 -58.29930 40068 ft 462 kts 51°
2026-04-24 12:59 -13.63676 -58.24936 40070 ft 461 kts 51°
2026-04-24 13:00 -13.59480 -58.19947 40067 ft 461 kts 51°
2026-04-24 13:00 -13.55299 -58.14978 40066 ft 460 kts 51°
2026-04-24 13:01 -13.51116 -58.10011 40063 ft 459 kts 51°
2026-04-24 13:01 -13.46937 -58.05051 40070 ft 459 kts 51°
2026-04-24 13:02 -13.42751 -58.00086 40057 ft 459 kts 51°
2026-04-24 13:02 -13.38577 -57.95138 40053 ft 458 kts 51°
2026-04-24 13:03 -13.34401 -57.90187 40059 ft 458 kts 51°
2026-04-24 13:03 -13.30234 -57.85250 40069 ft 458 kts 51°
2026-04-24 13:04 -13.26062 -57.80310 40059 ft 458 kts 51°
2026-04-24 13:04 -13.21888 -57.75371 40057 ft 458 kts 51°
2026-04-24 13:05 -13.17715 -57.70438 40057 ft 458 kts 51°
2026-04-24 13:05 -13.13529 -57.65492 40059 ft 459 kts 51°
2026-04-24 13:06 -13.09340 -57.60545 40058 ft 459 kts 51°
2026-04-24 13:06 -13.05152 -57.55603 40063 ft 459 kts 51°
2026-04-24 13:07 -13.00970 -57.50671 40055 ft 458 kts 51°
2026-04-24 13:07 -12.96788 -57.45741 40059 ft 459 kts 51°
2026-04-24 13:08 -12.92596 -57.40801 40056 ft 459 kts 51°
2026-04-24 13:08 -12.88410 -57.35873 40060 ft 459 kts 51°
2026-04-24 13:09 -12.82130 -57.28482 40059 ft 458 kts 51°
2026-04-24 13:09 -12.77935 -57.23549 40054 ft 459 kts 51°
2026-04-24 13:10 -12.74451 -57.19454 40055 ft 458 kts 51°
2026-04-24 13:10 -12.70263 -57.14535 40058 ft 458 kts 51°
2026-04-24 13:11 -12.66069 -57.09607 40047 ft 459 kts 51°
2026-04-24 13:11 -12.61871 -57.04680 40052 ft 459 kts 51°
2026-04-24 13:12 -12.57683 -56.99767 40053 ft 459 kts 51°
2026-04-24 13:12 -12.53480 -56.94837 40048 ft 459 kts 51°
2026-04-24 13:13 -12.49281 -56.89917 40054 ft 459 kts 51°
2026-04-24 13:13 -12.45083 -56.84999 40052 ft 459 kts 51°
2026-04-24 13:14 -12.40880 -56.80080 40056 ft 459 kts 51°
2026-04-24 13:14 -12.36700 -56.75189 40055 ft 460 kts 51°
2026-04-24 13:15 -12.32455 -56.70225 40057 ft 460 kts 51°
2026-04-24 13:15 -12.28237 -56.65295 40055 ft 461 kts 51°
2026-04-24 13:16 -12.24009 -56.60355 40050 ft 462 kts 51°
2026-04-24 13:16 -12.19771 -56.55410 40053 ft 462 kts 51°
2026-04-24 13:17 -12.15525 -56.50469 40053 ft 462 kts 51°
2026-04-24 13:17 -12.11291 -56.45534 40053 ft 461 kts 51°
2026-04-24 13:18 -12.07071 -56.40613 40052 ft 461 kts 51°
2026-04-24 13:18 -12.02841 -56.35687 40047 ft 461 kts 51°
2026-04-24 13:19 -11.98614 -56.30765 40055 ft 461 kts 51°
2026-04-24 13:19 -11.94377 -56.25836 40053 ft 462 kts 51°
2026-04-24 13:20 -11.90141 -56.20909 40050 ft 461 kts 50°
2026-04-24 13:20 -11.85924 -56.15969 40047 ft 462 kts 51°
2026-04-24 13:21 -11.81718 -56.11007 40052 ft 462 kts 51°
2026-04-24 13:21 -11.77495 -56.06055 40056 ft 463 kts 51°
2026-04-24 13:22 -11.73272 -56.01088 40053 ft 464 kts 51°
2026-04-24 13:22 -11.69038 -55.96122 40053 ft 464 kts 51°
2026-04-24 13:23 -11.64812 -55.91161 40055 ft 463 kts 51°
2026-04-24 13:23 -11.60580 -55.86198 40045 ft 463 kts 51°
2026-04-24 13:24 -11.56345 -55.81233 40044 ft 464 kts 51°
2026-04-24 13:24 -11.52107 -55.76268 40050 ft 464 kts 51°
2026-04-24 13:25 -11.47867 -55.71303 40052 ft 464 kts 51°
2026-04-24 13:25 -11.43625 -55.66338 40047 ft 465 kts 51°
2026-04-24 13:26 -11.39377 -55.61368 40037 ft 465 kts 51°
2026-04-24 13:26 -11.35123 -55.56394 40044 ft 465 kts 51°
2026-04-24 13:27 -11.30873 -55.51426 40042 ft 465 kts 51°
2026-04-24 13:27 -11.26614 -55.46455 40023 ft 465 kts 51°
2026-04-24 13:28 -11.22382 -55.41514 40026 ft 465 kts 51°
2026-04-24 13:28 -11.18101 -55.36517 40036 ft 465 kts 51°
2026-04-24 13:29 -11.13840 -55.31548 40026 ft 466 kts 51°
2026-04-24 13:29 -11.09576 -55.26576 40038 ft 466 kts 51°
2026-04-24 13:30 -11.05309 -55.21603 40029 ft 466 kts 51°
2026-04-24 13:30 -11.01042 -55.16634 40029 ft 467 kts 51°
2026-04-24 13:31 -10.96793 -55.11687 40048 ft 467 kts 51°
2026-04-24 13:31 -10.92515 -55.06709 40030 ft 468 kts 51°
2026-04-24 13:32 -10.88231 -55.01726 40048 ft 468 kts 50°
2026-04-24 13:32 -10.83947 -54.96746 40024 ft 468 kts 50°
2026-04-24 13:33 -10.79654 -54.91759 40026 ft 468 kts 50°
2026-04-24 13:33 -10.75362 -54.86774 40027 ft 468 kts 50°
2026-04-24 13:34 -10.71069 -54.81791 40024 ft 468 kts 50°
2026-04-24 13:34 -10.66779 -54.76814 40023 ft 468 kts 50°
2026-04-24 13:35 -10.62484 -54.71833 40021 ft 468 kts 50°
2026-04-24 13:35 -10.58187 -54.66853 40023 ft 469 kts 50°
2026-04-24 13:36 -10.53885 -54.61869 40023 ft 469 kts 50°
2026-04-24 13:36 -10.49578 -54.56881 40024 ft 470 kts 50°
2026-04-24 13:37 -10.45259 -54.51883 40023 ft 470 kts 50°
2026-04-24 13:37 -10.40948 -54.46895 40024 ft 470 kts 50°
2026-04-24 13:38 -10.36621 -54.41891 40021 ft 471 kts 50°
2026-04-24 13:38 -10.32296 -54.36892 40024 ft 472 kts 50°
2026-04-24 13:39 -10.27963 -54.31886 40023 ft 472 kts 50°
2026-04-24 13:39 -10.23650 -54.26904 40019 ft 472 kts 50°
2026-04-24 13:40 -10.19286 -54.21867 40023 ft 472 kts 50°
2026-04-24 13:40 -10.14948 -54.16861 40022 ft 472 kts 50°
2026-04-24 13:41 -10.10608 -54.11856 40021 ft 472 kts 50°
2026-04-24 13:41 -10.06262 -54.06847 40024 ft 474 kts 50°
2026-04-24 13:42 -10.01901 -54.01819 40020 ft 475 kts 50°
2026-04-24 13:42 -9.97536 -53.96790 40022 ft 475 kts 50°
2026-04-24 13:43 -9.93176 -53.91769 40022 ft 474 kts 50°
2026-04-24 13:43 -9.88820 -53.86756 40020 ft 474 kts 50°
2026-04-24 13:44 -9.84465 -53.81745 40021 ft 474 kts 50°
2026-04-24 13:44 -9.80092 -53.76722 40020 ft 475 kts 50°
2026-04-24 13:45 -9.75719 -53.71697 40018 ft 475 kts 49°
2026-04-24 13:45 -9.71348 -53.66679 40019 ft 475 kts 49°
2026-04-24 13:46 -9.66980 -53.61664 40017 ft 475 kts 49°
2026-04-24 13:46 -9.62604 -53.56644 40019 ft 475 kts 49°
2026-04-24 13:47 -9.58222 -53.51619 40017 ft 476 kts 49°
2026-04-24 13:47 -9.53839 -53.46595 40014 ft 476 kts 49°
2026-04-24 13:48 -9.49473 -53.41587 40015 ft 476 kts 49°
2026-04-24 13:48 -9.45079 -53.36549 40018 ft 476 kts 49°
2026-04-24 13:49 -9.40705 -53.31537 40018 ft 475 kts 49°
2026-04-24 13:49 -9.36321 -53.26515 40018 ft 475 kts 49°
2026-04-24 13:50 -9.31945 -53.21506 40018 ft 475 kts 49°
2026-04-24 13:50 -9.27573 -53.16502 40023 ft 475 kts 49°
2026-04-24 13:51 -9.23193 -53.11491 40020 ft 475 kts 49°
2026-04-24 13:51 -9.19557 -53.07332 40022 ft 475 kts 49°
2026-04-24 13:52 -9.15185 -53.02335 40022 ft 475 kts 49°
2026-04-24 13:52 -9.10808 -52.97332 40019 ft 474 kts 49°
2026-04-24 13:53 -9.06440 -52.92344 40020 ft 474 kts 49°
2026-04-24 13:53 -9.02072 -52.87362 40018 ft 473 kts 49°
2026-04-24 13:54 -8.97705 -52.82381 40018 ft 473 kts 49°
2026-04-24 13:54 -8.93341 -52.77405 40018 ft 473 kts 49°
2026-04-24 13:55 -8.88974 -52.72429 40017 ft 473 kts 49°
2026-04-24 13:55 -8.84618 -52.67466 40016 ft 472 kts 49°
2026-04-24 13:56 -8.80259 -52.62503 40016 ft 472 kts 49°
2026-04-24 13:56 -8.75899 -52.57540 40016 ft 471 kts 49°
2026-04-24 13:57 -8.71552 -52.52594 40016 ft 471 kts 49°
2026-04-24 13:57 -8.67197 -52.47640 40019 ft 471 kts 49°
2026-04-24 13:58 -8.62849 -52.42698 40014 ft 471 kts 49°
2026-04-24 13:58 -8.58491 -52.37766 40019 ft 470 kts 45°
2026-04-24 13:59 -8.55999 -52.35632 40045 ft 471 kts 33°
2026-04-24 13:59 -8.53176 -52.33934 40031 ft 473 kts 30°
2026-04-24 13:59 -8.47445 -52.30681 40034 ft 473 kts 30°
2026-04-24 14:00 -8.41760 -52.27434 40015 ft 472 kts 30°
2026-04-24 14:00 -8.36044 -52.24180 40024 ft 472 kts 30°
2026-04-24 14:01 -8.30325 -52.20923 40036 ft 471 kts 30°
2026-04-24 14:01 -8.24612 -52.17671 40032 ft 471 kts 30°
2026-04-24 14:02 -8.18898 -52.14420 40022 ft 471 kts 30°
2026-04-24 14:02 -8.13195 -52.11177 40022 ft 470 kts 30°
2026-04-24 14:03 -8.07488 -52.07932 40013 ft 470 kts 31°
2026-04-24 14:03 -8.01792 -52.04694 40015 ft 470 kts 31°
2026-04-24 14:04 -7.96100 -52.01459 40019 ft 470 kts 31°
2026-04-24 14:04 -7.90404 -51.98224 40033 ft 469 kts 31°
2026-04-24 14:05 -7.84706 -51.94988 40022 ft 470 kts 31°
2026-04-24 14:05 -7.79012 -51.91756 40021 ft 470 kts 31°
2026-04-24 14:06 -7.73313 -51.88523 40032 ft 470 kts 31°
2026-04-24 14:06 -7.67612 -51.85288 40022 ft 471 kts 31°
2026-04-24 14:07 -7.61895 -51.82046 40031 ft 471 kts 31°
2026-04-24 14:07 -7.56195 -51.78814 40018 ft 471 kts 31°
2026-04-24 14:08 -7.50481 -51.75576 40018 ft 471 kts 31°
2026-04-24 14:08 -7.44765 -51.72338 40034 ft 471 kts 31°
2026-04-24 14:09 -7.39049 -51.69100 40035 ft 471 kts 31°
2026-04-24 14:09 -7.33327 -51.65860 40017 ft 472 kts 31°
2026-04-24 14:10 -7.27606 -51.62622 40024 ft 471 kts 31°
2026-04-24 14:10 -7.21894 -51.59389 40032 ft 471 kts 31°
2026-04-24 14:11 -7.16221 -51.56180 40013 ft 470 kts 31°
2026-04-24 14:12 -7.07604 -51.51438 40011 ft 471 kts 30°
2026-04-24 14:12 -7.01861 -51.48263 40012 ft 471 kts 29°
2026-04-24 14:13 -6.96066 -51.45165 40013 ft 472 kts 30°
2026-04-24 14:13 -6.90294 -51.42021 40016 ft 472 kts 30°
2026-04-24 14:14 -6.84509 -51.38903 40014 ft 471 kts 29°
2026-04-24 14:14 -6.75791 -51.34189 40031 ft 473 kts 30°
2026-04-24 14:15 -6.69999 -51.31065 40014 ft 473 kts 30°
2026-04-24 14:15 -6.64208 -51.27936 40015 ft 472 kts 29°
2026-04-24 14:16 -6.58420 -51.24813 40017 ft 472 kts 30°
2026-04-24 14:17 -6.49761 -51.20141 40010 ft 473 kts 30°
2026-04-24 14:17 -6.41051 -51.15443 40015 ft 474 kts 30°
2026-04-24 14:18 -6.35242 -51.12312 40020 ft 473 kts 30°
2026-04-24 14:18 -6.29439 -51.09185 40019 ft 473 kts 30°
2026-04-24 14:19 -6.23630 -51.06055 40018 ft 473 kts 30°
2026-04-24 14:19 -6.17831 -51.02932 40014 ft 473 kts 30°
2026-04-24 14:20 -6.12030 -50.99808 40016 ft 473 kts 30°
2026-04-24 14:20 -6.06231 -50.96687 40017 ft 473 kts 30°
2026-04-24 14:21 -6.00442 -50.93572 40017 ft 472 kts 30°
2026-04-24 14:21 -5.94655 -50.90458 40018 ft 472 kts 30°
2026-04-24 14:22 -5.88876 -50.87349 40021 ft 471 kts 30°
2026-04-24 14:23 -5.80204 -50.82686 40018 ft 472 kts 30°
2026-04-24 14:23 -5.74399 -50.79565 40024 ft 473 kts 30°
2026-04-24 14:24 -5.68588 -50.76442 40020 ft 474 kts 30°
2026-04-24 14:24 -5.62781 -50.73322 40018 ft 473 kts 30°
2026-04-24 14:25 -5.57952 -50.70727 40018 ft 472 kts 29°
2026-04-24 14:25 -5.51193 -50.67097 40014 ft 471 kts 30°
2026-04-24 14:26 -5.45415 -50.63994 40011 ft 471 kts 29°
2026-04-24 14:26 -5.39622 -50.60883 40015 ft 472 kts 29°
2026-04-24 14:27 -5.33828 -50.57773 40016 ft 472 kts 29°
2026-04-24 14:27 -5.28041 -50.54667 40013 ft 471 kts 29°
2026-04-24 14:28 -5.22262 -50.51566 40013 ft 471 kts 29°
2026-04-24 14:28 -5.16480 -50.48464 40010 ft 472 kts 29°
2026-04-24 14:29 -5.10693 -50.45361 40014 ft 473 kts 30°
2026-04-24 14:29 -5.04880 -50.42243 40017 ft 474 kts 30°
2026-04-24 14:30 -5.00049 -50.39653 40015 ft 475 kts 30°
2026-04-24 14:30 -4.93218 -50.35992 40014 ft 476 kts 30°
2026-04-24 14:31 -4.87406 -50.32877 40014 ft 476 kts 30°
2026-04-24 14:31 -4.81558 -50.29743 40016 ft 476 kts 30°
2026-04-24 14:32 -4.75686 -50.26598 40011 ft 475 kts 30°
2026-04-24 14:32 -4.69895 -50.23496 40014 ft 475 kts 30°
2026-04-24 14:33 -4.64037 -50.20359 40014 ft 474 kts 30°
2026-04-24 14:33 -4.58246 -50.17259 40020 ft 475 kts 30°
2026-04-24 14:34 -4.52424 -50.14142 40013 ft 475 kts 30°
2026-04-24 14:34 -4.46610 -50.11030 40013 ft 474 kts 30°
2026-04-24 14:35 -4.40804 -50.07923 40013 ft 472 kts 30°
2026-04-24 14:35 -4.35008 -50.04822 40011 ft 472 kts 30°
2026-04-24 14:36 -4.29213 -50.01722 40007 ft 473 kts 30°
2026-04-24 14:36 -4.23412 -49.98620 40004 ft 472 kts 30°
2026-04-24 14:37 -4.17626 -49.95526 40002 ft 471 kts 30°
2026-04-24 14:37 -4.12789 -49.92940 40001 ft 470 kts 30°
2026-04-24 14:38 -4.07015 -49.89853 40001 ft 470 kts 30°
2026-04-24 14:38 -4.01235 -49.86764 40001 ft 471 kts 30°
2026-04-24 14:39 -3.95448 -49.83671 40000 ft 471 kts 30°
2026-04-24 14:39 -3.89671 -49.80584 40003 ft 471 kts 30°
2026-04-24 14:40 -3.83888 -49.77495 40003 ft 471 kts 30°
2026-04-24 14:40 -3.78108 -49.74408 40006 ft 471 kts 30°
2026-04-24 14:41 -3.72341 -49.71328 40008 ft 471 kts 30°
2026-04-24 14:41 -3.66566 -49.68244 40008 ft 470 kts 30°
2026-04-24 14:42 -3.60807 -49.65169 40003 ft 469 kts 30°
2026-04-24 14:42 -3.55049 -49.62096 40010 ft 468 kts 30°
2026-04-24 14:43 -3.49309 -49.59032 40005 ft 468 kts 30°
2026-04-24 14:43 -3.43557 -49.55962 40004 ft 467 kts 30°
2026-04-24 14:44 -3.37821 -49.52902 40007 ft 467 kts 30°
2026-04-24 14:44 -3.32079 -49.49839 40006 ft 468 kts 29°
2026-04-24 14:45 -3.26339 -49.46778 40011 ft 468 kts 29°
2026-04-24 14:45 -3.20593 -49.43714 40007 ft 467 kts 29°
2026-04-24 14:46 -3.14851 -49.40652 40006 ft 468 kts 30°
2026-04-24 14:46 -3.09089 -49.37580 40009 ft 469 kts 30°
2026-04-24 14:47 -3.03333 -49.34512 40011 ft 469 kts 30°
2026-04-24 14:47 -2.97575 -49.31443 40010 ft 469 kts 30°
2026-04-24 14:48 -2.91807 -49.28369 40012 ft 470 kts 30°
2026-04-24 14:48 -2.86075 -49.25314 40012 ft 470 kts 30°
2026-04-24 14:49 -2.80279 -49.22226 40010 ft 470 kts 30°
2026-04-24 14:49 -2.74511 -49.19153 40009 ft 470 kts 30°
2026-04-24 14:50 -2.68785 -49.16103 40003 ft 469 kts 30°
2026-04-24 14:50 -2.63022 -49.13033 40005 ft 470 kts 30°
2026-04-24 14:51 -2.57244 -49.09955 40001 ft 471 kts 30°
2026-04-24 14:51 -2.51453 -49.06872 40014 ft 472 kts 30°
2026-04-24 14:52 -2.45648 -49.03781 40003 ft 473 kts 29°
2026-04-24 14:52 -2.39850 -49.00693 39998 ft 472 kts 29°
2026-04-24 14:53 -2.34061 -48.97612 39998 ft 471 kts 29°
2026-04-24 14:53 -2.28273 -48.94530 39997 ft 470 kts 29°
2026-04-24 14:54 -2.22494 -48.91454 39997 ft 471 kts 29°
2026-04-24 14:54 -2.16705 -48.88373 39997 ft 472 kts 29°
2026-04-24 14:55 -2.11851 -48.85790 39994 ft 472 kts 29°
2026-04-24 14:55 -2.05114 -48.82205 39992 ft 473 kts 29°
2026-04-24 14:56 -1.99300 -48.79111 39991 ft 474 kts 29°
2026-04-24 14:56 -1.93439 -48.76057 39997 ft 476 kts 28°
2026-04-24 14:57 -1.87534 -48.73063 39997 ft 476 kts 28°
2026-04-24 14:57 -1.81655 -48.70021 39998 ft 475 kts 28°
2026-04-24 14:58 -1.75760 -48.67011 39997 ft 475 kts 28°
2026-04-24 14:58 -1.69903 -48.63998 39997 ft 474 kts 28°
2026-04-24 14:59 -1.64032 -48.60990 40000 ft 473 kts 28°
2026-04-24 14:59 -1.58174 -48.57982 40009 ft 474 kts 28°
2026-04-24 15:00 -1.52305 -48.54973 40017 ft 474 kts 28°
2026-04-24 15:00 -1.46434 -48.51960 40023 ft 474 kts 28°
2026-04-24 15:01 -1.40566 -48.48950 39999 ft 474 kts 28°
2026-04-24 15:01 -1.34773 -48.45821 39991 ft 473 kts 30°
2026-04-24 15:02 -1.28962 -48.42730 39990 ft 473 kts 30°
2026-04-24 15:02 -1.23196 -48.39556 39993 ft 472 kts 30°
2026-04-24 15:03 -1.18401 -48.36966 39994 ft 472 kts 30°
2026-04-24 15:03 -1.11664 -48.33295 39998 ft 472 kts 30°
2026-04-24 15:04 -1.05909 -48.30170 39996 ft 473 kts 30°
2026-04-24 15:04 -1.00102 -48.27011 40001 ft 474 kts 30°
2026-04-24 15:05 -0.94307 -48.23860 40003 ft 475 kts 30°
2026-04-24 15:05 -0.88507 -48.20707 40005 ft 474 kts 30°
2026-04-24 15:06 -0.82702 -48.17551 39998 ft 474 kts 30°
2026-04-24 15:06 -0.76947 -48.14423 39999 ft 474 kts 30°
2026-04-24 15:07 -0.71117 -48.11252 39990 ft 475 kts 30°
2026-04-24 15:07 -0.65310 -48.08095 39995 ft 476 kts 30°
2026-04-24 15:08 -0.59530 -48.04952 39997 ft 477 kts 30°
2026-04-24 15:08 -0.53691 -48.01778 40002 ft 478 kts 30°
2026-04-24 15:09 -0.47843 -47.98598 39998 ft 478 kts 30°
2026-04-24 15:09 -0.41999 -47.95420 39995 ft 478 kts 30°
2026-04-24 15:10 -0.36171 -47.92252 39998 ft 477 kts 30°
2026-04-24 15:10 -0.30357 -47.89091 39992 ft 475 kts 30°
2026-04-24 15:11 -0.24543 -47.85930 39994 ft 476 kts 30°
2026-04-24 15:11 -0.18725 -47.82767 39996 ft 477 kts 30°
2026-04-24 15:12 -0.12898 -47.79599 39995 ft 477 kts 30°
2026-04-24 15:12 -0.04151 -47.74844 39997 ft 477 kts 30°
2026-04-24 15:13 0.01674 -47.71677 39995 ft 476 kts 30°
2026-04-24 15:13 0.07502 -47.68509 39992 ft 477 kts 30°
2026-04-24 15:14 0.13334 -47.65339 39997 ft 478 kts 30°
2026-04-24 15:14 0.19193 -47.62153 39993 ft 480 kts 30°
2026-04-24 15:15 0.25062 -47.58963 39993 ft 481 kts 30°
2026-04-24 15:15 0.30948 -47.55763 39994 ft 481 kts 30°
2026-04-24 15:16 0.36822 -47.52569 39992 ft 481 kts 30°
2026-04-24 15:16 0.42697 -47.49375 39989 ft 481 kts 30°
2026-04-24 15:17 0.48567 -47.46184 39994 ft 481 kts 30°
2026-04-24 15:17 0.54447 -47.42987 39994 ft 481 kts 30°
2026-04-24 15:18 0.60322 -47.39793 39990 ft 480 kts 30°
2026-04-24 15:18 0.66193 -47.36600 39989 ft 480 kts 30°
2026-04-24 15:19 0.72013 -47.33436 39990 ft 479 kts 30°
2026-04-24 15:19 0.76923 -47.30766 39992 ft 480 kts 30°
2026-04-24 15:20 0.83748 -47.27055 39991 ft 481 kts 30°
2026-04-24 15:20 0.88669 -47.24379 39992 ft 481 kts 30°
2026-04-24 15:21 0.94557 -47.21177 39990 ft 482 kts 30°
2026-04-24 15:21 1.00449 -47.17972 39991 ft 483 kts 30°
2026-04-24 15:22 1.06356 -47.14761 39990 ft 483 kts 30°
2026-04-24 15:23 1.15211 -47.09944 39992 ft 483 kts 30°
2026-04-24 15:23 1.24027 -47.05149 39988 ft 483 kts 30°
2026-04-24 15:25 1.38807 -46.97111 39987 ft 485 kts 30°
2026-04-24 15:26 1.53662 -46.89032 39987 ft 486 kts 30°
2026-04-24 15:27 1.71498 -46.79329 39985 ft 486 kts 30°
2026-04-24 15:29 1.89308 -46.69639 39985 ft 485 kts 30°
2026-04-24 15:31 2.10054 -46.58348 39985 ft 485 kts 30°
2026-04-24 15:33 2.33747 -46.45445 39987 ft 487 kts 30°
2026-04-24 15:34 2.48639 -46.37333 39984 ft 487 kts 30°
2026-04-24 15:35 2.63510 -46.29230 39985 ft 487 kts 29°
2026-04-24 15:36 2.69456 -46.25989 39980 ft 486 kts 29°
2026-04-24 15:36 2.78379 -46.21126 39981 ft 486 kts 29°
2026-04-24 15:37 2.84310 -46.17892 39982 ft 486 kts 29°
2026-04-24 15:37 2.90241 -46.14659 39981 ft 485 kts 29°
2026-04-24 15:38 2.96180 -46.11421 39979 ft 485 kts 29°
2026-04-24 15:38 3.02098 -46.08193 39979 ft 485 kts 29°
2026-04-24 15:39 3.08032 -46.04957 39984 ft 485 kts 29°
2026-04-24 15:39 3.13950 -46.01729 39982 ft 484 kts 29°
2026-04-24 15:40 3.19868 -45.98500 39978 ft 484 kts 29°
2026-04-24 15:40 3.25771 -45.95279 39981 ft 484 kts 29°
2026-04-24 15:41 3.31694 -45.92047 39976 ft 484 kts 29°
2026-04-24 15:41 3.37590 -45.88829 39977 ft 484 kts 29°
2026-04-24 15:42 3.43499 -45.85604 39981 ft 483 kts 29°
2026-04-24 15:42 3.49404 -45.82380 39977 ft 482 kts 29°
2026-04-24 15:43 3.55282 -45.79171 39975 ft 482 kts 29°
2026-04-24 15:43 3.61174 -45.75953 39976 ft 482 kts 29°
2026-04-24 15:44 3.67056 -45.72741 39974 ft 481 kts 29°
2026-04-24 15:44 3.72918 -45.69538 39976 ft 480 kts 29°
2026-04-24 15:45 3.78783 -45.66335 39974 ft 479 kts 29°
2026-04-24 15:45 3.84648 -45.63131 39973 ft 480 kts 30°
2026-04-24 15:46 3.90506 -45.59930 39977 ft 480 kts 30°
2026-04-24 15:46 3.96368 -45.56727 39977 ft 480 kts 30°
2026-04-24 15:47 4.02226 -45.53525 39975 ft 480 kts 30°
2026-04-24 15:47 4.08079 -45.50326 39973 ft 479 kts 30°
2026-04-24 15:48 4.13926 -45.47129 39974 ft 479 kts 30°
2026-04-24 15:48 4.19771 -45.43932 39972 ft 478 kts 30°
2026-04-24 15:49 4.25616 -45.40735 39972 ft 478 kts 30°
2026-04-24 15:49 4.31457 -45.37541 39971 ft 478 kts 30°
2026-04-24 15:50 4.37258 -45.34367 39977 ft 477 kts 30°
2026-04-24 15:50 4.43123 -45.31157 39976 ft 477 kts 30°
2026-04-24 15:51 4.48944 -45.27971 39974 ft 477 kts 30°
2026-04-24 15:51 4.54721 -45.24809 39974 ft 477 kts 30°
2026-04-24 15:52 4.60536 -45.21625 39974 ft 476 kts 30°
2026-04-24 15:52 4.66352 -45.18440 39974 ft 476 kts 30°
2026-04-24 15:53 4.72161 -45.15258 39973 ft 476 kts 30°
2026-04-24 15:53 4.77971 -45.12075 39971 ft 475 kts 30°
2026-04-24 15:54 4.83772 -45.08897 39975 ft 475 kts 30°
2026-04-24 15:54 4.89568 -45.05720 39975 ft 475 kts 30°
2026-04-24 15:55 4.95369 -45.02540 39975 ft 475 kts 30°
2026-04-24 15:55 5.01117 -44.99315 39986 ft 473 kts 33°
2026-04-24 15:56 5.06756 -44.95871 39973 ft 474 kts 32°
2026-04-24 15:56 5.12382 -44.92436 39974 ft 474 kts 33°
2026-04-24 15:57 5.18008 -44.88990 39975 ft 474 kts 32°
2026-04-24 15:57 5.23646 -44.85548 39975 ft 474 kts 32°
2026-04-24 15:58 5.29276 -44.82099 39977 ft 474 kts 32°
2026-04-24 15:58 5.34902 -44.78660 39976 ft 474 kts 32°
2026-04-24 15:59 5.40527 -44.75215 39977 ft 473 kts 32°
2026-04-24 15:59 5.46146 -44.71778 39976 ft 473 kts 32°
2026-04-24 16:00 5.51772 -44.68332 39977 ft 473 kts 32°
2026-04-24 16:00 5.57393 -44.64891 39976 ft 473 kts 32°
2026-04-24 16:01 5.63013 -44.61448 39975 ft 473 kts 32°
2026-04-24 16:01 5.68596 -44.58027 39974 ft 473 kts 32°
2026-04-24 16:02 5.74246 -44.54566 39969 ft 471 kts 32°
2026-04-24 16:02 5.79791 -44.51166 39969 ft 471 kts 32°
2026-04-24 16:03 5.85394 -44.47731 39974 ft 472 kts 32°
2026-04-24 16:03 5.91008 -44.44289 39974 ft 473 kts 32°
2026-04-24 16:04 5.96617 -44.40848 39975 ft 473 kts 32°
2026-04-24 16:04 6.02235 -44.37402 39978 ft 473 kts 32°
2026-04-24 16:05 6.10652 -44.32236 39974 ft 473 kts 32°
2026-04-24 16:06 6.19080 -44.27062 39976 ft 473 kts 32°
2026-04-24 16:07 6.26544 -44.22477 39977 ft 473 kts 32°
2026-04-24 16:07 6.34972 -44.17299 39980 ft 473 kts 32°
2026-04-24 16:08 6.43394 -44.12123 39978 ft 473 kts 32°
2026-04-24 16:09 6.51836 -44.06932 39975 ft 473 kts 32°
2026-04-24 16:09 6.57455 -44.03476 39978 ft 474 kts 32°
2026-04-24 16:11 6.71521 -43.94820 39977 ft 474 kts 33°
2026-04-24 16:11 6.77152 -43.91354 39980 ft 475 kts 33°
2026-04-24 16:12 6.85604 -43.86149 39976 ft 475 kts 33°
2026-04-24 16:13 6.94038 -43.80952 39979 ft 476 kts 33°
2026-04-24 16:14 7.05358 -43.73974 39983 ft 478 kts 33°
2026-04-24 16:14 7.13868 -43.68726 39978 ft 479 kts 33°
2026-04-24 16:15 7.22396 -43.63464 39981 ft 480 kts 33°
2026-04-24 16:16 7.30947 -43.58185 39981 ft 481 kts 33°
2026-04-24 16:17 7.45260 -43.49344 39984 ft 484 kts 33°
2026-04-24 16:18 7.56758 -43.42237 39981 ft 485 kts 33°
2026-04-24 16:19 7.65374 -43.36908 39981 ft 485 kts 33°
2026-04-24 16:20 7.73997 -43.31573 39981 ft 485 kts 33°
2026-04-24 16:20 7.82642 -43.26222 39983 ft 486 kts 33°
2026-04-24 16:21 7.91286 -43.20868 39982 ft 486 kts 33°
2026-04-24 16:22 7.97039 -43.17304 39981 ft 486 kts 33°
2026-04-24 16:22 8.05687 -43.11943 39982 ft 486 kts 33°
2026-04-24 16:23 8.11448 -43.08370 39983 ft 486 kts 33°
2026-04-24 16:24 8.20101 -43.03002 39982 ft 487 kts 33°
2026-04-24 16:24 8.25875 -42.99418 39986 ft 488 kts 33°
2026-04-24 16:25 8.31652 -42.95831 39982 ft 488 kts 33°
2026-04-24 16:25 8.37425 -42.92246 39980 ft 484 kts 33°
2026-04-24 16:26 8.46003 -42.86915 39975 ft 482 kts 32°
2026-04-24 16:27 8.54577 -42.81586 39979 ft 484 kts 32°
2026-04-24 16:27 8.60307 -42.78021 39976 ft 484 kts 32°
2026-04-24 16:28 8.66042 -42.74453 39979 ft 484 kts 32°
2026-04-24 16:28 8.74618 -42.69115 39983 ft 484 kts 32°
2026-04-24 16:29 8.80353 -42.65543 39978 ft 485 kts 32°
2026-04-24 16:30 8.91848 -42.58380 39982 ft 486 kts 32°
2026-04-24 16:30 8.97601 -42.54794 39986 ft 486 kts 32°
2026-04-24 16:31 9.03366 -42.51198 39981 ft 487 kts 32°
2026-04-24 16:31 9.09129 -42.47603 39984 ft 487 kts 32°
2026-04-24 16:32 9.14893 -42.44005 39986 ft 487 kts 32°
2026-04-24 16:32 9.20662 -42.40403 39989 ft 487 kts 32°
2026-04-24 16:33 9.26441 -42.36793 39987 ft 488 kts 32°
2026-04-24 16:33 9.32224 -42.33178 39989 ft 489 kts 32°
2026-04-24 16:34 9.38016 -42.29558 39990 ft 490 kts 32°
2026-04-24 16:34 9.43816 -42.25930 39988 ft 490 kts 32°
2026-04-24 16:35 9.49625 -42.22296 39990 ft 490 kts 32°
2026-04-24 16:35 9.55423 -42.18668 39991 ft 491 kts 32°
2026-04-24 16:36 9.61236 -42.15028 39991 ft 491 kts 32°
2026-04-24 16:36 9.67054 -42.11383 39992 ft 492 kts 31°
2026-04-24 16:37 9.72877 -42.07734 39995 ft 492 kts 32°
2026-04-24 16:37 9.78703 -42.04081 39997 ft 492 kts 32°
2026-04-24 16:38 9.84534 -42.00425 39999 ft 493 kts 31°
2026-04-24 16:38 9.90368 -41.96764 39995 ft 493 kts 31°
2026-04-24 16:39 9.96204 -41.93100 39995 ft 494 kts 31°
2026-04-24 16:39 10.02005 -41.89457 39996 ft 494 kts 31°
2026-04-24 16:40 10.07851 -41.85784 39998 ft 495 kts 31°
2026-04-24 16:40 10.13705 -41.82105 39998 ft 495 kts 31°
2026-04-24 16:41 10.19549 -41.78431 40001 ft 495 kts 31°
2026-04-24 16:41 10.25406 -41.74746 39996 ft 495 kts 31°
2026-04-24 16:42 10.31254 -41.71065 39996 ft 495 kts 31°
2026-04-24 16:42 10.37103 -41.67383 39998 ft 495 kts 31°
2026-04-24 16:43 10.42946 -41.63702 40000 ft 495 kts 31°
2026-04-24 16:43 10.48797 -41.60016 39999 ft 495 kts 31°
2026-04-24 16:44 10.54649 -41.56325 39998 ft 495 kts 31°
2026-04-24 16:44 10.60489 -41.52642 39996 ft 495 kts 31°
2026-04-24 16:45 10.66342 -41.48948 40005 ft 495 kts 31°
2026-04-24 16:45 10.72188 -41.45258 40005 ft 495 kts 31°
2026-04-24 16:46 10.78032 -41.41566 40002 ft 495 kts 31°
2026-04-24 16:46 10.83892 -41.37863 40002 ft 495 kts 31°
2026-04-24 16:47 10.89743 -41.34164 40003 ft 495 kts 31°
2026-04-24 16:47 10.95589 -41.30467 40004 ft 495 kts 31°
2026-04-24 16:48 11.01437 -41.26766 40005 ft 495 kts 31°
2026-04-24 16:48 11.07296 -41.23056 40007 ft 496 kts 31°
2026-04-24 16:49 11.13150 -41.19348 40008 ft 495 kts 31°
2026-04-24 16:49 11.19003 -41.15639 40008 ft 495 kts 31°
2026-04-24 16:50 11.24855 -41.11929 40005 ft 495 kts 31°
2026-04-24 16:50 11.30707 -41.08217 40005 ft 495 kts 31°
2026-04-24 16:51 11.36557 -41.04504 40005 ft 495 kts 31°
2026-04-24 16:51 11.42408 -41.00789 40009 ft 495 kts 31°
2026-04-24 16:52 11.48215 -40.97100 40009 ft 495 kts 31°
2026-04-24 16:52 11.54060 -40.93385 40006 ft 495 kts 31°
2026-04-24 16:53 11.59911 -40.89665 40007 ft 496 kts 31°
2026-04-24 16:53 11.64812 -40.86546 40010 ft 495 kts 31°
2026-04-24 16:54 11.70662 -40.82823 40009 ft 495 kts 31°
2026-04-24 16:54 11.76510 -40.79099 40011 ft 495 kts 31°
2026-04-24 16:55 11.82315 -40.75400 40009 ft 495 kts 31°
2026-04-24 16:55 11.88161 -40.71674 40012 ft 495 kts 31°
2026-04-24 16:56 11.93999 -40.67950 40010 ft 495 kts 31°
2026-04-24 16:56 11.99845 -40.64220 40012 ft 495 kts 31°
2026-04-24 16:57 12.05690 -40.60489 40012 ft 495 kts 31°
2026-04-24 16:57 12.11529 -40.56759 40013 ft 495 kts 31°
2026-04-24 16:58 12.17371 -40.53025 40013 ft 495 kts 31°
2026-04-24 16:58 12.23217 -40.49287 40012 ft 495 kts 31°
2026-04-24 16:59 12.29046 -40.45558 40014 ft 495 kts 31°
2026-04-24 17:00 12.37808 -40.39948 40015 ft 495 kts 31°
2026-04-24 17:00 12.46578 -40.34329 40014 ft 495 kts 31°
2026-04-24 17:01 12.55326 -40.28719 40011 ft 494 kts 31°
2026-04-24 17:02 12.64036 -40.23130 40008 ft 495 kts 31°
2026-04-24 17:02 12.69885 -40.19374 40012 ft 497 kts 31°
2026-04-24 17:03 12.78665 -40.13731 40015 ft 497 kts 31°
2026-04-24 17:04 12.84520 -40.09966 40016 ft 496 kts 31°
2026-04-24 17:04 12.93291 -40.04322 40016 ft 497 kts 31°
2026-04-24 17:05 12.99155 -40.00546 40018 ft 498 kts 31°
2026-04-24 17:06 13.08061 -39.95050 40012 ft 498 kts 30°
2026-04-24 17:06 13.16978 -39.89618 40011 ft 498 kts 30°
2026-04-24 17:07 13.22911 -39.85957 40013 ft 497 kts 30°
2026-04-24 17:08 13.34788 -39.78675 40017 ft 498 kts 30°
2026-04-24 17:08 13.40714 -39.75040 40018 ft 498 kts 30°
2026-04-24 17:09 13.52613 -39.67725 40014 ft 497 kts 30°
2026-04-24 17:10 13.64488 -39.60417 40019 ft 498 kts 30°
2026-04-24 17:12 13.88288 -39.45743 40023 ft 499 kts 30°
2026-04-24 18:54 24.77215 -29.07662 40148 ft 532 kts 39°
2026-04-24 18:55 24.84696 -28.98618 40152 ft 533 kts 39°
2026-04-24 18:56 24.89692 -28.92569 40150 ft 534 kts 39°
2026-04-24 18:56 24.94688 -28.86512 40154 ft 534 kts 39°
2026-04-24 18:57 24.99691 -28.80439 40151 ft 535 kts 39°
2026-04-24 18:57 25.04687 -28.74365 40154 ft 534 kts 39°
2026-04-24 18:58 25.09681 -28.68289 40151 ft 535 kts 39°
2026-04-24 18:58 25.14674 -28.62202 40151 ft 535 kts 39°
2026-04-24 18:59 25.19634 -28.56150 40153 ft 534 kts 39°
2026-04-24 18:59 25.24611 -28.50068 40156 ft 534 kts 39°
2026-04-24 19:00 25.29585 -28.43983 40157 ft 534 kts 39°
2026-04-24 19:00 25.34564 -28.37883 40150 ft 535 kts 39°
2026-04-24 19:01 25.39543 -28.31775 40155 ft 535 kts 39°
2026-04-24 19:01 25.44524 -28.25655 40154 ft 535 kts 39°
2026-04-24 19:02 25.48663 -28.20565 40162 ft 535 kts 39°
2026-04-24 19:02 25.54480 -28.13401 40161 ft 535 kts 39°
2026-04-24 19:03 25.58618 -28.08297 40159 ft 535 kts 39°
2026-04-24 19:03 25.63585 -28.02165 40154 ft 535 kts 39°
2026-04-24 19:04 25.68543 -27.96034 40156 ft 534 kts 39°
2026-04-24 19:04 25.73499 -27.89899 40161 ft 534 kts 39°
2026-04-24 19:05 25.78453 -27.83757 40161 ft 535 kts 39°
2026-04-24 19:05 25.83418 -27.77594 40161 ft 536 kts 39°
2026-04-24 19:06 25.88378 -27.71426 40164 ft 535 kts 39°
2026-04-24 19:06 25.93338 -27.65253 40163 ft 535 kts 39°
2026-04-24 19:07 25.98291 -27.59079 40161 ft 536 kts 39°
2026-04-24 19:07 26.03243 -27.52897 40166 ft 535 kts 39°
2026-04-24 19:08 26.08187 -27.46718 40167 ft 535 kts 39°
2026-04-24 19:08 26.13137 -27.40522 40166 ft 535 kts 39°
2026-04-24 19:09 26.18049 -27.34365 40170 ft 535 kts 39°
2026-04-24 19:09 26.22994 -27.28158 40170 ft 535 kts 39°
2026-04-24 19:10 26.27922 -27.21963 40169 ft 535 kts 39°
2026-04-24 19:10 26.32889 -27.15714 40171 ft 535 kts 39°
2026-04-24 19:11 26.37783 -27.09544 40170 ft 535 kts 39°
2026-04-24 19:11 26.42712 -27.03322 40171 ft 535 kts 39°
2026-04-24 19:12 26.47634 -26.97103 40171 ft 535 kts 39°
2026-04-24 19:12 26.52557 -26.90871 40165 ft 535 kts 39°
2026-04-24 19:13 26.56643 -26.85692 40173 ft 534 kts 39°
2026-04-24 19:13 26.62375 -26.78418 40162 ft 534 kts 39°
2026-04-24 19:14 26.67277 -26.72186 40166 ft 534 kts 39°
2026-04-24 19:14 26.72183 -26.65942 40171 ft 533 kts 39°
2026-04-24 19:15 26.77073 -26.59708 40171 ft 533 kts 39°
2026-04-24 19:15 26.81960 -26.53471 40175 ft 533 kts 39°
2026-04-24 19:16 26.89295 -26.44090 40174 ft 533 kts 39°
2026-04-24 19:16 26.94175 -26.37839 40176 ft 533 kts 39°
2026-04-24 19:17 26.99060 -26.31572 40173 ft 533 kts 39°
2026-04-24 19:17 27.03907 -26.25345 40172 ft 533 kts 40°
2026-04-24 19:18 27.08810 -26.19038 40176 ft 533 kts 40°
2026-04-24 19:18 27.13655 -26.12795 40177 ft 534 kts 40°
2026-04-24 19:19 27.18528 -26.06507 40176 ft 534 kts 40°
2026-04-24 19:19 27.23400 -26.00212 40175 ft 534 kts 40°
2026-04-24 19:20 27.28269 -25.93911 40179 ft 534 kts 40°
2026-04-24 19:20 27.33133 -25.87608 40178 ft 534 kts 40°
2026-04-24 19:21 27.37988 -25.81306 40177 ft 533 kts 40°
2026-04-24 19:21 27.42846 -25.74993 40180 ft 534 kts 40°
2026-04-24 19:22 27.47704 -25.68670 40176 ft 534 kts 40°
2026-04-24 19:22 27.52569 -25.62328 40179 ft 535 kts 40°
2026-04-24 19:23 27.57434 -25.55977 40182 ft 535 kts 40°
2026-04-24 19:23 27.62291 -25.49626 40181 ft 535 kts 40°
2026-04-24 19:24 27.67143 -25.43274 40181 ft 535 kts 40°
2026-04-24 19:24 27.71968 -25.36947 40180 ft 535 kts 40°
2026-04-24 19:25 27.76821 -25.30574 40179 ft 536 kts 40°
2026-04-24 19:25 27.81668 -25.24199 40178 ft 535 kts 41°
2026-04-24 19:26 27.86517 -25.17812 40184 ft 535 kts 41°
2026-04-24 19:26 27.91366 -25.11416 40167 ft 536 kts 41°
2026-04-24 19:27 27.96208 -25.05018 40174 ft 535 kts 41°
2026-04-24 19:27 28.00937 -24.98649 40193 ft 539 kts 45°
2026-04-24 19:28 28.05542 -24.91966 40173 ft 538 kts 44°
2026-04-24 19:28 28.10152 -24.85285 40176 ft 538 kts 44°
2026-04-24 19:29 28.17035 -24.75272 40181 ft 536 kts 44°
2026-04-24 19:30 28.21612 -24.68597 40183 ft 536 kts 45°
2026-04-24 19:30 28.26188 -24.61919 40183 ft 536 kts 45°
2026-04-24 19:31 28.30761 -24.55234 40184 ft 536 kts 45°
2026-04-24 19:31 28.35328 -24.48548 40180 ft 536 kts 45°
2026-04-24 19:32 28.39890 -24.41858 40184 ft 536 kts 45°
2026-04-24 19:32 28.44452 -24.35157 40183 ft 535 kts 45°
2026-04-24 19:33 28.49003 -24.28462 40184 ft 534 kts 45°
2026-04-24 19:33 28.53543 -24.21773 40181 ft 534 kts 45°
2026-04-24 19:34 28.58074 -24.15085 40179 ft 534 kts 45°
2026-04-24 19:34 28.62571 -24.08439 40184 ft 533 kts 46°
2026-04-24 19:35 28.67081 -24.01761 40185 ft 532 kts 46°
2026-04-24 19:35 28.71589 -23.95078 40190 ft 532 kts 46°
2026-04-24 19:36 28.76094 -23.88388 40190 ft 533 kts 46°
2026-04-24 19:36 28.80601 -23.81683 40185 ft 532 kts 46°
2026-04-24 19:37 28.85103 -23.74975 40190 ft 532 kts 46°
2026-04-24 19:37 28.89595 -23.68272 40185 ft 532 kts 46°
2026-04-24 19:38 28.94080 -23.61567 40190 ft 531 kts 46°
2026-04-24 19:38 28.98564 -23.54855 40191 ft 531 kts 46°
2026-04-24 19:39 29.03039 -23.48144 40178 ft 531 kts 47°
2026-04-24 19:39 29.07516 -23.41421 40183 ft 531 kts 47°
2026-04-24 19:40 29.11981 -23.34703 40187 ft 530 kts 47°
2026-04-24 19:40 29.16433 -23.27995 40191 ft 529 kts 47°
2026-04-24 19:41 29.20884 -23.21277 40188 ft 529 kts 47°
2026-04-24 19:41 29.25330 -23.14556 40187 ft 529 kts 47°
2026-04-24 19:42 29.29762 -23.07846 40187 ft 528 kts 47°
2026-04-24 19:42 29.34191 -23.01129 40189 ft 528 kts 47°
2026-04-24 19:43 29.38618 -22.94404 40188 ft 528 kts 47°
2026-04-24 19:43 29.43033 -22.87686 40190 ft 528 kts 47°
2026-04-24 19:44 29.47448 -22.80958 40190 ft 528 kts 48°
2026-04-24 19:44 29.51860 -22.74222 40190 ft 528 kts 48°
2026-04-24 19:45 29.56271 -22.67478 40191 ft 528 kts 48°
2026-04-24 19:45 29.60670 -22.60740 40192 ft 528 kts 48°
2026-04-24 19:46 29.65074 -22.53984 40190 ft 527 kts 48°
2026-04-24 19:46 29.69471 -22.47227 40190 ft 527 kts 49°
2026-04-24 19:47 29.73858 -22.40474 40185 ft 527 kts 49°
2026-04-24 19:47 29.78239 -22.33720 40187 ft 527 kts 49°
2026-04-24 19:48 29.82612 -22.26966 40187 ft 526 kts 49°
2026-04-24 19:48 29.89153 -22.16845 40189 ft 524 kts 49°
2026-04-24 19:49 29.97819 -22.03395 40193 ft 524 kts 49°
2026-04-24 19:50 30.04945 -21.90329 40191 ft 527 kts 56°
2026-04-24 19:51 30.10531 -21.79425 40191 ft 525 kts 56°
2026-04-24 19:52 30.16090 -21.68505 40192 ft 526 kts 56°
2026-04-24 19:52 30.19788 -21.61227 40189 ft 526 kts 56°
2026-04-24 19:53 30.23490 -21.53931 40194 ft 526 kts 56°
2026-04-24 19:54 30.29040 -21.42965 40191 ft 526 kts 56°
2026-04-24 19:54 30.32729 -21.35662 40194 ft 526 kts 57°
2026-04-24 19:55 30.35791 -21.29588 40192 ft 526 kts 57°
2026-04-24 19:55 30.40090 -21.21045 40191 ft 525 kts 57°
2026-04-24 19:56 30.43762 -21.13732 40190 ft 524 kts 57°